Regional Weather Roundup
Issued by NWS Sterling, VA

Home | Current Version | Previous Version | Text Only | Print | Product List | Glossary On
Versions: 1 2 3 4 5 6 7 8 9 10 11 12 13 14 15 16 17 18 19 20 21 22 23 24 25 26 27 28 29 30 31 32 33 34 35 36 37 38 39 40 41 42 43 44 45 46 47 48 49 50
000
ASUS41 KLWX 211811
RWRLWX

REGIONAL WEATHER ROUNDUP
NATIONAL WEATHER SERVICE BALTIMORE MD/WASHINGTON DC
200 PM EDT FRI JUL 21 2017

Note: "FAIR" indicates few or no clouds below 12,000 feet
with no significant weather and/or obstructions to visibility.
 TC=TEMPERATURE CELSIUS

 * =Non NWS site. Station does not report precipitation (e.g. rain,
    snow, etc.), thunder, or fog.

DCZ001-MDZ009-015-VAZ040>042-051-053>054-211900-
WASHINGTON METRO

CITY           SKY/WX    TMP DP  RH WIND       PRES   REMARKS
WASHINGTON NAT PTSUNNY   93  73  52 S9        29.93F HX 102
DULLES         PTSUNNY   91  70  49 SW6       29.95F HX  96
ANDREWS AFB    CLOUDY    92  70  48 SW3       29.93F HX  98
FT BELVOIR     MOSUNNY   94  70  45 NW5       29.93F HX  99
QUANTICO       PTSUNNY   91  75  59 S8        29.94F HX 101
COLLEGE PARK*  CLOUDY    92  69  47 SE6       29.93F HX  96
LEESBURG*      CLOUDY    93  73  52 CALM      29.96F HX 102
MANASSAS*      CLOUDY    92  72  51 W8        29.95F HX  99
GAITHERSBURG*  MOSUNNY   91  72  53 VRB3      29.96F HX  98

$$

MDZ006>007-011-014-211900-
BALTIMORE METRO

CITY           SKY/WX    TMP DP  RH WIND       PRES   REMARKS
BWI AIRPORT    CLOUDY    90  71  53 S10       29.92F HX  96
MD SCIENCE CTR   N/A     92  71  50 MISG      29.93F HX  98
MARTIN STATE   MOSUNNY   90  75  62 SE8       29.94F HX 100
ANNAPOLIS      PTSUNNY   88  74  63 SE8       29.93F HX  96
FORT MEADE*      N/A     90  68  48 S5        29.95F HX  93

$$

MDZ012-015-019>023-211900-
MARYLAND EASTERN SHORE

CITY           SKY/WX    TMP DP  RH WIND       PRES   REMARKS
OCEAN CITY     SUNNY     85  75  72 SE8       29.94S HX  93
SALISBURY      MOSUNNY   93  73  52 SW3       29.93S HX 102
CAMBRIDGE*     SUNNY     91  72  52 VRB5      29.93F HX  98
EASTON*        PTSUNNY   93  68  43 NW5       29.98S HX  97

$$

MDZ017>025-211900-
SOUTHERN MARYLAND

CITY           SKY/WX    TMP DP  RH WIND       PRES   REMARKS
PATUXENT RIVER CLOUDY    91  72  53 NW7       29.94F HX  98
ST INIGOES     CLOUDY    90  76  63 SW7       29.94F HX 101
LEONARDTOWN*   CLOUDY   N/A N/A N/A N3        29.96F

$$

MDZ003>005-211900-
NORTH CENTRAL MARYLAND

CITY           SKY/WX    TMP DP  RH WIND       PRES   REMARKS
FREDERICK*     MOSUNNY   91  70  49 W3        29.97F HX  97
HAGERSTOWN APT CLOUDY    91  70  49 VRB6      29.95F HX  96
WESTMINSTER*   CLOUDY    91  72  52 W7        29.97F HX  98

$$

MDZ501>502-211900-
WESTERN MARYLAND

CITY           SKY/WX    TMP DP  RH WIND       PRES   REMARKS
OAKLAND*       CLOUDY    81  70  69 W6        30.08S
CUMBERLAND*    MOSUNNY   91  72  52 CALM      29.99F HX  98

$$

VAZ025>031-211900-
SHENANDOAH VALLEY

CITY           SKY/WX    TMP DP  RH WIND       PRES   REMARKS
WINCHESTER*    PTSUNNY   86  73  66 E3        29.96F HX  93
FRONT ROYAL*   MOSUNNY   91  70  49 S7        29.95F HX  97
LURAY*         MOSUNNY   90  72  55 W6        29.98F HX  96
NEW MARKET*    PTSUNNY   93  70  46 S7        29.95F HX  99
STAUNTON*      SUNNY     91  69  48 S10       30.02F HX  96
WAYNESBORO*    SUNNY     89  72  56 W5        30.03F HX  96

$$

WVZ021-048>050-054>055-211900-
EASTERN WEST VIRGINIA PANHANDLE

CITY           SKY/WX    TMP DP  RH WIND       PRES   REMARKS
MARTINSBURG    CLOUDY    91  68  46 VRB3      29.94F HX  95
PETERSBURG*    MOSUNNY   93  71  49 NE3       29.97F THUNDER HX 100

$$

VAZ036>039-050-211900-
CENTRAL FOOTHILLS

CITY           SKY/WX    TMP DP  RH WIND       PRES   REMARKS
CHARLOTTESVILL SUNNY     96  68  39 VRB5      29.96F HX 101
CULPEPER*      MOSUNNY   93  73  50 SW3       29.96F HX 102
ORANGE*        MOSUNNY   93  66  40 CALM      29.95F HX  96
GORDONSVILLE*  MOSUNNY   96  69  41 SW6       29.95F HX 101
WARRENTON*     MOSUNNY   95  66  37 W6        29.95F HX  98

$$

VAZ055>057-211900-
NORTH AND CENTRAL PIEDMONT

CITY           SKY/WX    TMP DP  RH WIND       PRES   REMARKS
FREDERICKSBRG* MOSUNNY   92  71  49 E3        29.94S HX  99
STAFFORD*      MOSUNNY   94  69  44 NW3       29.99F HX  99

$$

NCZ024-NYZ072-PAZ021-071-VAZ022-071-211900-
OTHER REGIONAL OBSERVATIONS

CITY           SKY/WX    TMP DP  RH WIND       PRES   REMARKS
NEW YORK CITY  SUNNY     91  65  41 CALM      29.91F HX  93
PHILADELPHIA   CLOUDY    92  67  43 NW9G16    29.91F HX  95
PITTSBURGH     CLOUDY    84  72  67 E6        29.99F
ROANOKE        PTSUNNY   91  71  51 S6        30.04F HX  97
RICHMOND       CLOUDY    93  70  46 VRB3      29.95F HX  99
RALEIGH        PTSUNNY   97  69  40 SW16      30.00F HX 103

$$

ANZ530>537-211900-
MARINE OBSERVATIONS

STATION/POSITION TIME  TEMP    WIND        PRES
                       AIR SEA DIR/SP/G
                 (UTC) (F)     (DEG/KT/KT) (MB)
THOMAS PT LIGHT  1800   86 83  150/  4/  4   N/A
BALT KEY BRIDGE  1748   86     120/ 10/ 11 1013.2F
COVE POINT       1748   86     340/  5/  6 1014.7F
LEWISETTA        1748   86 84  100/  4/  5 1013.9F
SOLOMONS ISLAND  1748           70/  2/  5   N/A
PINEY POINT      1748          310/  6/  6   N/A

$$




USA.gov is the U.S. government's official web portal to all federal, state and local government web resources and services.